This is the latest recevied weather packets stored in our database for station/object KC4JIR. If no packets are shown the sender has not sent any weather packets the latest 10 day(s).
| Time | Temp. | Humidity | Pressure | Rain* | Wind** | Luminosity | Snow |
|---|---|---|---|---|---|---|---|
| 1788134369 | 26.67° C | 91% | 1015.9 hPa | 0 mm | - | 0 W/m² | - |
| 1788134065 | 27.22° C | 90% | 1015.9 hPa | 0 mm | - | 3 W/m² | - |
| 1788133760 | 27.22° C | 90% | 1015.9 hPa | 0 mm | - | 4 W/m² | - |
| 1788133455 | 27.22° C | 89% | 1016 hPa | 0 mm | - | 7 W/m² | - |
| 1788133151 | 27.22° C | 89% | 1015.7 hPa | 0 mm | - | 9 W/m² | - |
| 1788132846 | 27.78° C | 89% | 1015.8 hPa | 0 mm | - | 10 W/m² | - |
| 1788132542 | 27.78° C | 88% | 1016 hPa | 0 mm | - | 11 W/m² | - |
| 1788132237 | 27.78° C | 86% | 1015.7 hPa | 0 mm | - | 12 W/m² | - |
| 1788131934 | 28.33° C | 87% | 1015.9 hPa | 0 mm | - | 13 W/m² | - |
| 1788131629 | 28.33° C | 87% | 1015.9 hPa | 0 mm | - | 15 W/m² | - |
| 1788131328 | 28.33° C | 85% | 1015.8 hPa | 0 mm | - | 18 W/m² | - |
| 1788131024 | 28.33° C | 87% | 1015.8 hPa | 0 mm | - | 22 W/m² | - |
| 1788130723 | 28.89° C | 84% | 1015.7 hPa | 0 mm | - | 24 W/m² | - |
| 1788130419 | 28.89° C | 83% | 1015.7 hPa | 0 mm | - | 27 W/m² | - |
| 1788130113 | 30° C | 83% | 1015.7 hPa | 0 mm | - | 27 W/m² | - |
| 1788129820 | 30.56° C | 82% | 1015.5 hPa | 0 mm | - | 28 W/m² | - |
| 1788129504 | 30° C | 80% | 1015.5 hPa | 0 mm | - | 33 W/m² | - |
| 1788129200 | 29.44° C | 81% | 1015.4 hPa | 0 mm | - | 41 W/m² | - |
| 1788128894 | 29.44° C | 81% | 1015.5 hPa | 0 mm | - | 45 W/m² | - |
| 1788128589 | 30° C | 85% | 1015.8 hPa | 0 mm | - | 45 W/m² | - |
| 1788128284 | 30° C | 81% | 1015.3 hPa | 0 mm | - | 60 W/m² | - |
| 1788127981 | 30° C | 77% | 1015.6 hPa | 0 mm | - | 60 W/m² | - |
| 1788127676 | 30.56° C | 79% | 1015.6 hPa | 0 mm | - | 51 W/m² | - |
| 1788127375 | 31.11° C | 77% | 1015.8 hPa | 0 mm | - | 61 W/m² | - |
| 1788127074 | 31.67° C | 72% | 1015.8 hPa | 0 mm | - | 69 W/m² | - |
* Rain latest hour (hover to see other rain measurements)
** Current wind speed in m/s (hover to see current wind gust speed)